Weather in Volchanka

Russia / Ulyanovsk Oblast     53°00′29″N   48°09′02″E
temp.,
°C
wind,
m/s
gust,
m/s
humid.,
%
clouds,
%
prec.,
mm/h
press.,
hPa
HPBL,
m
17 may, mon
mon1701:00+20s334526 0.0 101621
04:00+18s335591 0.0 101737
07:00+21s365699 0.0 1017143
10:00+26s344235 0.0 1017371
13:00+30s343142 0.0 10171160
16:00+30s342412 0.0 10173407
19:00+26sse34407 0.0 101670
22:00+22s33411 0.0 101720
18 may, tue
tue1801:00+20ese114273 0.0 101611
04:00+18e22455 0.0 101611
07:00+19e24504 0.0 1017113
10:00+25ese58340 0.0 1016485
13:00+29se56270 0.0 10161326
16:00+30se45240 0.0 10152340
19:00+27e22365 0.0 101421
22:00+20e39455 0.0 1015136
19 may, wed
wed1901:00+19ene22455 0.0 101521
04:00+16ene39595 0.0 1015156
07:00+18e511764 0.0 1015334
10:00+23e68554 0.0 1015637
13:00+27e78410 0.0 10141515
16:00+28e88391 0.0 10142044
19:00+24e612470 0.0 1013424
22:00+20e716590 0.0 1014496
20 may, thu
thu2001:00+19ese816580 0.0 1014656
04:00+17ese715630 0.0 1014473
07:00+17ese61567100 0.0 1015705
10:00+21ese8115565 0.0 10141045
13:00+24se81149100 0.1 10132122
16:00+20sse71264100 2.3 1012630
19:00+15w5887100 3.4 1013289
22:00+14sse2392100 5.6 1014154
21 may, fri
fri2101:00+14sw3590100 0.6 1012167
04:00+14ssw2490100 1.1 1013116
07:00+15sw46850 0.0 1015303
10:00+19sw566617 0.0 10151159
13:00+21sw675154 0.1 10161882
16:00+22sw684537 0.1 10162131
19:00+21ssw475952 0.0 1017349
22:00+17s3366100 0.0 101844